STARLINK-3269 (50194 NORAD) Tracking and Keplerian Element Data
This shows tracking and keplerian element data for the satellite.
Feedback or suggestion? Click here.
Element | Value |
Catalog | 50194 |
Name | STARLINK-3269 |
Epoch Orbit | 2660 |
Epoch Day | 140.91667824 |
Epoch Year | 2022 |
RAAN | 353.5606 |
Inclination | 53.2153 |
Eccentricity | 0.0001811 |
Argument of Perigee | 55.3978 |
Mean Anonmoly | 357.6896 |
Mean Motion | 15.08818335 |
Decay Rate | 0.00019868 |
L1 | 1 50194U 21125AQ 22140.91667824 .00019868 00000+0 12636-2 0 9993 |
L2 | 2 50194 53.2153 353.5606 0001811 55.3978 357.6896 15.08818335 26606 |
Live tracking and technical data element details for STARLINK-3269 (NORAD 50194). STARLINK-3269 can be tracked NOW for your location showing map with azimuth and elevation plus other details from your city location.
Track the satellite on the map from your city or location and see movement details for azimuth, elevation, latitude, longitude, range, height, and movement on the map or in text.
IsCatalogInMostPopularTable: catalog: 50194, numindb: 29
Update: records affected: 1
GetName: 50194 STARLINK-3269
Hit Count: updated at: Mon, 23 May 2022 21:32:00 GMT